Weather History for Quincy, IL

Change the Weather History Date:

Sunday, February 16, 2014

  Actual Average Record
Temperature  
Mean Temperature 26 °F 31 °F  
Max Temperature 29 °F 39 °F 71 °F (1921)
Min Temperature 22 °F 23 °F -11 °F (1958)
Degree Days  
Heating Degree Days 39 34  
Month to date heating degree days 844 575  
Since 1 July heating degree days 4469 3961  
Cooling Degree Days 0 0  
Month to date cooling degree days 0 0  
Year to date cooling degree days 0 0  
Moisture  
Dew Point 18 °F    
Average Humidity 72    
Maximum Humidity 81    
Minimum Humidity 63    
Precipitation  
Precipitation 0.00 in 0.07 in 0.84 in (1976)
Month to date precipitation 0.67 0.98  
Year to date precipitation 1.37 2.50  
Sea Level Pressure  
Sea Level Pressure 30.16 in    
Wind  
Wind Speed 11 mph (North)    
Max Wind Speed 22 mph    
Max Gust Speed 26 mph    
Visibility 9 miles    
Events      
T = Trace of Precipitation, MM = Missing Value Source: NWS Daily Summary

Daily Weather History Graph

Daily Weather History Graph

Search for Another Location

Airport:

Trip Planner

Search our weather history database for the weather conditions in past years. The results will help you decide how hot, cold, wet, or windy it might be!

Date:

Astronomy

Feb. 16, 2014 Rise Set
Actual Time 6:56 AM CST 5:42 PM CST
Civil Twilight 6:28 AM CST 6:09 PM CST
Nautical Twilight 5:56 AM CST 6:41 PM CST
Astronomical Twilight 5:25 AM CST 7:12 PM CST
Moon 7:39 PM CST (2/16) 7:26 AM CST (2/16)
Length of Visible Light 11h 41m
Length of Day
10h 45m
Full, 97% of the Moon is Illuminated
Feb 16
Full
Feb 22
Last Quarter
Mar 1
New
Mar 8
First Quarter
Mar 16
Full

Hourly Weather History & Observations

Time (CST) Temp. Windchill Dew Point Humidity Pressure Visibility Wind Dir Wind Speed Gust Speed Precip Events Conditions
12:54 AM 21.9 °F 12.5 °F 16.0 °F 78% 30.00 in 10.0 mi WNW 8.1 mph - N/A   Clear
1:24 AM 25.0 °F 14.8 °F 18.0 °F 75% 29.97 in 10.0 mi WNW 10.4 mph - N/A   Mostly Cloudy
1:54 AM 26.1 °F 14.0 °F 19.0 °F 75% 30.01 in 10.0 mi NW 15.0 mph - N/A   Overcast
2:54 AM 27.0 °F 13.5 °F 21.0 °F 78% 30.05 in 9.0 mi NW 19.6 mph - N/A   Overcast
3:54 AM 27.0 °F 13.5 °F 21.0 °F 78% 30.09 in 9.0 mi NNW 19.6 mph - N/A   Overcast
4:54 AM 27.0 °F 15.6 °F 21.0 °F 78% 30.10 in 10.0 mi North 13.8 mph - N/A   Overcast
5:54 AM 26.1 °F 15.6 °F 21.0 °F 81% 30.11 in 9.0 mi NNW 11.5 mph - N/A   Overcast
6:54 AM 26.1 °F 16.2 °F 19.9 °F 78% 30.13 in 8.0 mi North 10.4 mph - N/A   Overcast
7:54 AM 25.0 °F 12.6 °F 19.0 °F 78% 30.16 in 8.0 mi North 15.0 mph - N/A   Overcast
8:51 AM 24.8 °F 14.0 °F 19.4 °F 80% 30.16 in 7.0 mi North 11.5 mph - N/A   Overcast
8:54 AM 25.0 °F 13.6 °F 19.9 °F 81% 30.20 in 7.0 mi NNW 12.7 mph - N/A   Overcast
9:54 AM 25.0 °F 12.6 °F 19.0 °F 78% 30.22 in 8.0 mi North 15.0 mph - N/A   Overcast
10:07 AM 25.0 °F 14.2 °F 18.0 °F 75% 30.21 in 8.0 mi NNE 11.5 mph - N/A   Overcast
10:54 AM 25.0 °F 17.1 °F 18.0 °F 75% 30.27 in 9.0 mi North 6.9 mph - N/A   Overcast
11:54 AM 26.1 °F 16.8 °F 17.1 °F 69% 30.25 in 10.0 mi NNE 9.2 mph - N/A   Overcast
12:54 PM 27.0 °F 21.6 °F 17.1 °F 66% 30.23 in 10.0 mi North 4.6 mph - N/A   Overcast
1:54 PM 27.0 °F - 17.1 °F 66% 30.23 in 10.0 mi Calm Calm - N/A   Overcast
2:44 PM 27.0 °F - 16.0 °F 63% 30.20 in 10.0 mi Calm Calm - N/A   Scattered Clouds
2:54 PM 27.0 °F 21.6 °F 16.0 °F 63% 30.22 in 10.0 mi NNE 4.6 mph - N/A   Clear
3:54 PM 25.0 °F 20.7 °F 16.0 °F 69% 30.23 in 9.0 mi North 3.5 mph - N/A   Clear
4:54 PM 26.1 °F - 15.1 °F 63% 30.22 in 10.0 mi Calm Calm - N/A   Clear
5:54 PM 24.1 °F 17.0 °F 16.0 °F 71% 30.20 in 9.0 mi East 5.8 mph - N/A   Clear
6:54 PM 25.0 °F 15.5 °F 17.1 °F 72% 30.21 in 10.0 mi ESE 9.2 mph - N/A   Clear
7:54 PM 24.1 °F 13.7 °F 17.1 °F 75% 30.19 in 8.0 mi ESE 10.4 mph - N/A   Mostly Cloudy
8:54 PM 23.0 °F 8.7 °F 17.1 °F 78% 30.19 in 7.0 mi SE 18.4 mph - N/A   Overcast
9:54 PM 23.0 °F 9.2 °F 17.1 °F 78% 30.17 in 7.0 mi SE 17.3 mph - N/A   Mostly Cloudy
10:54 PM 23.0 °F 10.1 °F 17.1 °F 78% 30.16 in 6.0 mi SE 15.0 mph - N/A   Haze
11:54 PM 23.0 °F 10.1 °F 17.1 °F 78% 30.14 in 6.0 mi ESE 15.0 mph - N/A   Haze